period_start,C,m1,H,J0,J1,J2,J3,J4,J5,JA,JB,JC,JD,JJ,JK,JN,#
2014-03-17 00:00:13,0.16,9.98,0.00,23.86,28.85,31.73,6.15,32.67,1014.19,2030.96,1195.99,1590.77,1732.05,349.69,322.35,23.42,0000 0000 0000 0000 000000
2014-03-17 00:01:14,0.15,9.98,0.00,23.86,28.85,31.71,5.96,32.42,1014.18,2030.97,1195.65,1590.35,1732.00,350.51,322.72,23.43,0000 0000 0000 0000 000000
2014-03-17 00:02:14,0.61,9.99,0.00,23.87,28.85,31.69,6.02,32.50,1014.19,2030.98,1195.27,1590.13,1731.92,349.82,322.09,23.43,0000 0000 0000 0000 000000
2014-03-17 00:03:14,0.46,9.99,0.00,23.87,28.85,31.73,5.88,32.63,1014.19,2030.96,1195.09,1590.05,1731.55,349.47,321.76,23.44,0000 0000 0000 0000 000000
2014-03-17 00:04:15,0.28,9.99,0.00,23.87,28.85,31.71,6.04,32.71,1014.18,2030.95,1195.03,1590.01,1731.22,349.86,322.12,23.44,0000 0000 0000 0000 000000
2014-03-17 00:05:15,0.19,9.99,0.00,23.87,28.85,31.72,6.00,32.71,1014.21,2030.95,1194.98,1589.95,1731.08,350.05,322.29,23.45,0000 0000 0000 0000 000000
2014-03-17 00:06:15,0.11,9.99,0.00,23.89,28.85,31.70,6.06,32.63,1014.19,2030.96,1194.64,1589.67,1731.02,349.78,322.02,23.46,0000 0000 0000 0000 000000
2014-03-17 00:07:15,0.46,10.00,0.00,23.90,28.85,31.72,6.06,32.75,1014.21,2030.95,1194.27,1589.33,1730.99,349.96,322.19,23.46,0000 0000 0000 0000 000000
2014-03-17 00:08:15,0.53,10.00,0.00,23.90,28.85,31.71,5.98,32.46,1014.25,2030.97,1194.10,1589.13,1730.89,349.31,321.96,23.47,0000 0000 0000 0000 000000
2014-03-17 00:09:15,0.29,10.00,0.00,23.92,28.85,31.71,6.16,32.71,1014.30,2030.98,1194.02,1589.05,1730.48,349.84,322.16,23.47,0000 0000 0000 0000 000000
2014-03-17 00:10:16,0.30,10.00,0.00,23.92,28.86,31.73,5.99,32.46,1014.35,2030.95,1193.98,1589.01,1730.18,350.40,322.83,23.48,0000 0000 0000 0000 000000
2014-03-17 00:11:16,0.11,10.00,0.00,23.92,28.87,31.72,5.91,32.54,1014.35,2030.95,1193.65,1588.98,1730.06,349.85,322.01,23.48,0000 0000 0000 0000 000000
2014-03-17 00:12:16,0.34,10.01,0.00,23.92,28.86,31.70,6.08,32.58,1014.38,2030.93,1193.27,1588.79,1730.01,351.14,323.30,23.49,0000 0000 0000 0000 000000
2014-03-17 00:13:17,0.39,10.01,0.00,23.93,28.87,31.68,6.14,32.46,1014.43,2030.90,1193.10,1588.46,1729.94,349.95,322.28,23.50,0000 0000 0000 0000 000000
2014-03-17 00:14:17,0.34,10.01,0.00,23.93,28.87,31.72,5.94,32.63,1014.47,2030.91,1193.02,1588.17,1729.62,349.33,321.65,23.50,0000 0000 0000 0000 000000
2014-03-17 00:15:17,0.35,10.01,0.00,23.94,28.87,31.73,6.04,32.50,1014.43,2030.89,1192.92,1588.06,1729.25,349.64,321.91,23.51,0000 0000 0000 0000 000000
2014-03-17 00:16:17,0.28,10.01,0.00,23.95,28.87,31.71,5.88,32.63,1014.51,2030.84,1192.50,1588.02,1729.09,350.13,322.45,23.51,0000 0000 0000 0000 000000
2014-03-17 00:17:18,0.37,10.02,0.00,23.95,28.87,31.66,5.86,32.88,1014.51,2030.85,1192.18,1587.96,1729.03,350.10,322.17,23.52,0000 0000 0000 0000 000000
2014-03-17 00:18:18,0.24,10.02,0.00,23.97,28.87,31.69,6.01,32.42,1014.55,2030.87,1192.06,1587.76,1728.97,349.65,321.94,23.53,0000 0000 0000 0000 000000
2014-03-17 00:19:18,0.26,10.02,0.00,23.97,28.87,31.71,6.13,32.88,1014.60,2030.87,1191.99,1587.39,1728.75,350.65,322.87,23.53,0000 0000 0000 0000 000000
2014-03-17 00:20:18,0.40,10.02,0.00,23.97,28.87,31.70,6.01,32.71,1014.62,2030.87,1191.76,1587.14,1728.38,349.32,321.92,23.54,0000 0000 0000 0000 000000
2014-03-17 00:21:19,0.48,10.02,0.00,23.97,28.87,31.68,6.06,32.71,1014.57,2030.85,1191.34,1587.05,1728.14,350.86,323.06,23.54,0000 0000 0000 0000 000000
2014-03-17 00:22:19,0.43,10.03,0.00,23.97,28.87,31.71,6.07,32.58,1014.56,2030.81,1191.13,1587.02,1728.05,350.46,322.68,23.55,0000 0000 0000 0000 000000
2014-03-17 00:23:19,0.15,10.03,0.00,23.97,28.87,31.70,6.14,32.75,1014.58,2030.84,1191.04,1586.98,1728.02,350.36,322.88,23.55,0000 0000 0000 0000 000000
2014-03-17 00:24:19,0.14,10.03,0.00,23.97,28.87,31.74,6.09,32.63,1014.53,2030.84,1190.99,1586.78,1727.97,350.18,322.41,23.56,0000 0000 0000 0000 000000
2014-03-17 00:25:20,0.18,10.03,0.00,23.97,28.87,31.74,6.03,32.50,1014.56,2030.80,1190.68,1586.40,1727.66,349.51,321.88,23.57,0000 0000 0000 0000 000000
2014-03-17 00:26:20,0.53,10.03,0.00,23.97,28.88,31.71,5.84,32.75,1014.57,2030.79,1190.27,1586.16,1727.27,349.00,321.22,23.57,0000 0000 0000 0000 000000
2014-03-17 00:27:20,0.60,10.04,0.00,23.98,28.88,31.75,5.90,32.25,1014.57,2030.85,1190.09,1586.06,1727.10,349.10,321.55,23.58,0000 0000 0000 0000 000000
2014-03-17 00:28:20,0.32,10.04,0.00,23.99,28.89,31.75,6.08,32.67,1014.62,2030.88,1190.03,1586.02,1727.03,349.82,322.38,23.58,0000 0000 0000 0000 000000
2014-03-17 00:29:21,0.14,10.04,0.00,23.99,28.89,31.72,5.97,32.67,1014.65,2030.84,1189.90,1585.95,1727.00,349.70,321.67,23.59,0000 0000 0000 0000 000000
2014-03-17 00:30:21,0.12,10.04,0.00,24.00,28.90,31.74,6.11,32.63,1014.66,2030.84,1189.47,1585.80,1726.96,349.76,322.35,23.60,0000 0000 0000 0000 000000
2014-03-17 00:31:21,0.44,10.04,0.00,24.00,28.90,31.72,6.03,32.67,1014.65,2030.80,1189.20,1585.46,1726.78,350.78,322.85,23.60,0000 0000 0000 0000 000000
2014-03-17 00:32:21,0.45,10.04,0.00,24.02,28.90,31.73,5.88,32.63,1014.64,2030.75,1189.07,1585.19,1726.37,349.65,322.26,23.61,0000 0000 0000 0000 000000
2014-03-17 00:33:21,0.31,10.05,0.00,24.02,28.90,31.70,5.93,32.71,1014.66,2030.75,1189.02,1585.07,1726.14,350.51,322.64,23.61,0000 0000 0000 0000 000000
2014-03-17 00:34:22,0.22,10.05,0.00,24.04,28.90,31.70,5.94,32.63,1014.66,2030.84,1188.85,1585.02,1726.05,349.78,322.01,23.62,0000 0000 0000 0000 000000
2014-03-17 00:35:22,0.31,10.05,0.00,24.05,28.90,31.71,6.14,32.71,1014.65,2030.92,1188.44,1584.98,1726.01,350.59,322.51,23.63,0000 0000 0000 0000 000000
2014-03-17 00:36:22,0.45,10.05,0.00,24.05,28.90,31.75,5.98,32.54,1014.66,2030.86,1188.17,1584.87,1725.93,349.83,322.04,23.63,0000 0000 0000 0000 000000
2014-03-17 00:37:22,0.28,10.05,0.00,24.07,28.90,31.70,5.88,32.75,1014.66,2030.84,1188.06,1584.48,1725.52,350.04,322.06,23.64,0000 0000 0000 0000 000000
2014-03-17 00:38:23,0.41,10.06,0.00,24.07,28.90,31.75,6.07,32.46,1014.66,2030.78,1188.01,1584.20,1725.20,350.08,322.25,23.64,0000 0000 0000 0000 000000
2014-03-17 00:39:23,0.31,10.06,0.00,24.07,28.90,31.72,6.00,32.71,1014.66,2030.58,1187.71,1584.07,1725.07,350.23,322.52,23.65,0000 0000 0000 0000 000000
2014-03-17 00:40:23,0.10,10.06,0.00,24.09,28.90,31.72,5.92,32.54,1014.66,2030.48,1187.30,1584.02,1725.01,350.07,322.23,23.65,0000 0000 0000 0000 000000
2014-03-17 00:41:24,0.20,10.06,0.00,24.09,28.91,31.69,6.15,32.79,1014.66,2030.31,1187.11,1583.97,1724.84,350.70,322.81,23.66,0000 0000 0000 0000 000000
2014-03-17 00:42:24,0.02,10.06,0.00,24.08,28.92,31.70,6.17,32.63,1014.66,2030.23,1187.03,1583.68,1724.44,350.80,323.08,23.67,0000 0000 0000 0000 000000
2014-03-17 00:43:24,0.27,10.06,0.00,24.08,28.92,31.63,5.85,32.58,1014.66,2030.22,1186.95,1583.30,1724.19,349.40,321.61,23.67,0000 0000 0000 0000 000000
2014-03-17 00:44:25,0.41,10.06,0.00,24.09,28.92,31.63,5.94,32.54,1014.67,2030.15,1186.54,1583.11,1724.07,349.60,321.78,23.68,0000 0000 0000 0000 000000
2014-03-17 00:45:25,0.41,10.07,0.00,24.09,28.92,31.74,5.88,32.42,1014.69,2030.13,1186.22,1583.04,1724.02,349.67,321.86,23.68,0000 0000 0000 0000 000000
2014-03-17 00:46:25,0.28,10.07,0.00,24.10,28.92,31.75,5.98,32.46,1014.67,2030.10,1186.08,1583.01,1723.98,350.26,322.39,23.69,0000 0000 0000 0000 000000
2014-03-17 00:47:26,0.11,10.07,0.00,24.10,28.92,31.73,6.04,32.54,1014.67,2030.13,1186.01,1582.90,1723.67,350.69,322.78,23.70,0000 0000 0000 0000 000000
2014-03-17 00:48:26,0.25,10.07,0.00,24.10,28.92,31.69,6.12,32.50,1014.68,2030.08,1185.82,1582.54,1723.27,350.40,322.73,23.70,0000 0000 0000 0000 000000
2014-03-17 00:49:26,0.48,10.07,0.00,24.11,28.92,31.66,6.07,32.42,1014.68,2030.06,1185.44,1582.21,1723.10,349.61,321.78,23.71,0000 0000 0000 0000 000000
2014-03-17 00:50:26,0.53,10.08,0.00,24.12,28.93,31.67,6.04,32.63,1014.68,2030.06,1185.18,1582.07,1723.03,349.87,322.42,23.71,0000 0000 0000 0000 000000
2014-03-17 00:51:26,0.28,10.08,0.00,24.12,28.94,31.69,6.15,32.54,1014.68,2030.06,1185.06,1582.02,1722.98,350.90,322.96,23.72,0000 0000 0000 0000 000000
2014-03-17 00:52:27,0.10,10.08,0.00,24.12,28.95,31.65,6.18,32.67,1014.68,2030.06,1185.02,1582.00,1722.86,350.23,322.34,23.72,0000 0000 0000 0000 000000
2014-03-17 00:53:27,0.13,10.08,0.00,24.12,28.95,31.69,5.78,32.58,1014.67,2030.06,1184.87,1581.96,1722.48,349.98,322.78,23.73,0000 0000 0000 0000 000000
2014-03-17 00:54:28,0.32,10.08,0.00,24.12,28.95,31.69,5.83,32.46,1014.68,2030.06,1184.43,1581.76,1722.19,349.95,322.08,23.74,0000 0000 0000 0000 000000
2014-03-17 00:55:28,0.56,10.08,0.00,24.12,28.95,31.71,6.11,32.54,1014.69,2030.07,1184.16,1581.33,1722.06,350.44,322.54,23.74,0000 0000 0000 0000 000000
2014-03-17 00:56:28,0.51,10.09,0.00,24.13,28.95,31.76,6.05,32.42,1014.72,2030.03,1184.05,1581.12,1722.00,350.73,322.80,23.75,0000 0000 0000 0000 000000
2014-03-17 00:57:29,0.17,10.09,0.00,24.14,28.95,31.73,5.99,32.75,1014.72,2030.02,1183.99,1581.04,1721.98,349.73,321.88,23.75,0000 0000 0000 0000 000000
2014-03-17 00:58:29,0.13,10.09,0.00,24.14,28.95,31.74,6.03,32.46,1014.72,2030.01,1183.77,1581.01,1721.66,349.70,321.83,23.76,0000 0000 0000 0000 000000
2014-03-17 00:59:29,0.30,10.09,0.00,24.15,28.95,31.75,5.95,32.63,1014.74,2030.02,1183.34,1580.95,1721.26,349.56,322.01,23.77,0000 0000 0000 0000 000000
2014-03-17 01:00:30,0.50,10.09,0.00,24.15,28.96,31.74,5.94,32.63,1014.80,2030.01,1183.12,1580.73,1721.10,349.83,321.98,23.77,0000 0000 0000 0000 000000
2014-03-17 01:01:30,0.35,10.10,0.00,24.15,28.97,31.70,5.90,32.21,1014.76,2030.02,1183.04,1580.36,1721.03,349.75,321.43,23.78,0000 0000 0000 0000 000000
2014-03-17 01:02:30,0.33,10.10,0.00,24.17,28.97,31.67,5.96,32.67,1014.87,2030.03,1182.98,1580.15,1721.00,349.25,321.44,23.78,0000 0000 0000 0000 000000
2014-03-17 01:03:30,0.23,10.10,0.00,24.17,28.97,31.70,5.97,32.67,1014.93,2030.04,1182.66,1580.05,1720.86,350.23,322.52,23.79,0000 0000 0000 0000 000000
2014-03-17 01:04:31,0.34,10.10,0.00,24.19,28.97,31.72,6.08,32.67,1015.04,2030.02,1182.28,1580.00,1720.51,349.49,321.70,23.80,0000 0000 0000 0000 000000
2014-03-17 01:05:31,0.43,10.10,0.00,24.19,28.97,31.80,5.84,32.54,1014.93,2030.04,1182.10,1579.95,1720.21,349.31,321.50,23.80,0000 0000 0000 0000 000000
2014-03-17 01:06:31,0.31,10.11,0.00,24.19,28.97,31.80,6.02,32.63,1014.90,2030.02,1182.02,1579.75,1720.07,350.20,321.46,23.81,0000 0000 0000 0000 000000
2014-03-17 01:07:32,0.22,10.11,0.00,24.20,28.98,31.72,5.97,32.42,1015.03,2030.01,1181.94,1579.33,1720.02,350.15,322.30,23.81,0000 0000 0000 0000 000000
2014-03-17 01:08:32,0.35,10.11,0.00,24.20,28.99,31.78,5.91,32.67,1014.96,2030.02,1181.59,1579.13,1719.95,349.34,321.52,23.82,0000 0000 0000 0000 000000
2014-03-17 01:09:32,0.40,10.11,0.00,24.20,29.00,31.75,5.78,32.46,1014.99,2030.00,1181.22,1579.05,1719.62,348.50,320.77,23.82,0000 0000 0000 0000 000000
2014-03-17 01:10:32,0.44,10.11,0.00,24.20,29.00,31.74,6.03,32.50,1014.98,2030.00,1181.07,1578.99,1719.25,350.43,322.53,23.83,0000 0000 0000 0000 000000
2014-03-17 01:11:33,0.28,10.12,0.00,24.20,29.00,31.81,5.88,32.46,1015.03,2030.00,1180.98,1578.90,1719.09,349.73,322.06,23.84,0000 0000 0000 0000 000000
2014-03-17 01:12:33,0.22,10.12,0.00,24.20,29.00,31.76,6.08,32.50,1014.97,2030.00,1180.78,1578.54,1719.03,349.41,321.53,23.84,0000 0000 0000 0000 000000
2014-03-17 01:13:33,0.38,10.12,0.00,24.20,29.00,31.80,6.05,32.50,1014.88,2030.00,1180.39,1578.22,1718.98,349.36,321.52,23.85,0000 0000 0000 0000 000000
2014-03-17 01:14:34,0.51,10.12,0.00,24.20,29.00,31.83,6.10,32.58,1014.81,2030.00,1180.15,1578.08,1718.79,349.73,321.93,23.85,0000 0000 0000 0000 000000
2014-03-17 01:15:34,0.35,10.12,0.00,24.21,29.00,31.81,6.07,32.67,1014.72,2030.00,1180.05,1578.03,1718.40,350.37,322.39,23.86,0000 0000 0000 0000 000000
2014-03-17 01:16:34,0.25,10.13,0.00,24.22,29.00,31.82,5.95,32.67,1014.72,2030.00,1180.01,1577.99,1718.15,349.20,321.30,23.87,0000 0000 0000 0000 000000
2014-03-17 01:17:34,0.15,10.13,0.00,24.22,29.02,31.77,6.04,32.79,1014.80,2030.00,1179.89,1577.92,1718.06,349.99,322.40,23.87,0000 0000 0000 0000 000000
2014-03-17 01:18:35,0.21,10.13,0.00,24.22,29.02,31.75,6.08,32.58,1014.75,2030.00,1179.48,1577.60,1718.01,350.60,322.60,23.88,0000 0000 0000 0000 000000
2014-03-17 01:19:35,0.48,10.13,0.00,24.22,29.02,31.79,6.03,32.54,1014.73,2030.00,1179.20,1577.24,1717.89,350.37,322.37,23.88,0000 0000 0000 0000 000000
2014-03-17 01:20:35,0.51,10.13,0.00,24.22,29.02,31.83,5.98,32.67,1014.85,2030.00,1179.07,1577.09,1717.48,350.03,322.10,23.89,0000 0000 0000 0000 000000
2014-03-17 01:21:35,0.34,10.14,0.00,24.22,29.02,31.81,5.91,32.67,1014.94,2030.00,1178.94,1577.02,1717.21,350.68,322.98,23.89,0000 0000 0000 0000 000000
2014-03-17 01:22:36,0.25,10.14,0.00,24.22,29.02,31.84,5.98,32.75,1014.93,2030.00,1178.64,1577.00,1717.08,350.24,322.09,23.90,0000 0000 0000 0000 000000
2014-03-17 01:23:36,0.33,10.14,0.00,24.22,29.02,31.82,5.98,32.54,1014.98,2030.00,1178.27,1576.88,1717.02,350.02,322.57,23.91,0000 0000 0000 0000 000000
2014-03-17 01:24:36,0.38,10.14,0.00,24.22,29.03,31.80,6.07,32.63,1014.86,2030.00,1178.10,1576.48,1716.95,351.07,323.15,23.91,0000 0000 0000 0000 000000
2014-03-17 01:25:37,0.38,10.15,0.00,24.22,29.04,31.83,5.99,32.67,1014.85,2030.00,1178.03,1576.19,1716.81,349.69,321.62,23.92,0000 0000 0000 0000 000000
2014-03-17 01:26:37,0.31,10.15,0.00,24.22,29.05,31.84,5.88,32.54,1014.87,2030.00,1177.92,1576.07,1716.44,349.91,321.73,23.92,0000 0000 0000 0000 000000
2014-03-17 01:27:37,0.33,10.15,0.00,24.22,29.05,31.86,5.92,32.67,1014.87,2030.00,1177.52,1576.02,1716.17,349.84,322.11,23.93,0000 0000 0000 0000 000000
2014-03-17 01:28:38,0.38,10.15,0.00,24.23,29.05,31.83,5.90,32.42,1014.82,2030.00,1177.23,1575.97,1716.06,350.11,322.16,23.94,0000 0000 0000 0000 000000
2014-03-17 01:29:38,0.28,10.15,0.00,24.24,29.05,31.79,6.08,32.67,1014.72,2030.00,1177.08,1575.91,1716.01,350.19,322.16,23.94,0000 0000 0000 0000 000000
2014-03-17 01:30:38,0.22,10.15,0.00,24.25,29.05,31.81,5.98,32.63,1014.69,2029.99,1177.01,1575.52,1715.85,350.55,322.00,23.95,0000 0000 0000 0000 000000
2014-03-17 01:31:38,0.34,10.15,0.00,24.25,29.05,31.79,5.97,32.63,1014.73,2029.99,1176.91,1575.20,1715.44,350.20,322.10,23.95,0000 0000 0000 0000 000000
2014-03-17 01:32:39,0.44,10.16,0.00,24.25,29.05,31.81,6.06,32.29,1014.70,2029.99,1176.57,1575.08,1715.20,350.98,323.01,23.96,0000 0000 0000 0000 000000
2014-03-17 01:33:39,0.41,10.16,0.00,24.26,29.07,31.79,6.02,32.25,1014.70,2029.99,1176.24,1575.03,1715.09,349.76,321.76,23.97,0000 0000 0000 0000 000000
2014-03-17 01:34:39,0.30,10.16,0.00,24.27,29.07,31.78,6.13,32.75,1014.70,2029.99,1176.08,1575.01,1715.03,350.82,322.42,23.97,0000 0000 0000 0000 000000
2014-03-17 01:35:40,0.15,10.16,0.00,24.27,29.07,31.78,6.02,32.75,1014.68,2029.99,1176.02,1574.98,1714.99,349.09,321.55,23.98,0000 0000 0000 0000 000000
2014-03-17 01:36:40,0.10,10.16,0.00,24.27,29.07,31.79,5.98,32.50,1014.68,2029.99,1175.89,1574.70,1714.78,350.46,322.18,23.98,0000 0000 0000 0000 000000
2014-03-17 01:37:40,0.46,10.17,0.00,24.27,29.07,31.81,5.92,32.50,1014.68,2029.99,1175.46,1574.27,1714.32,349.70,321.69,23.99,0000 0000 0000 0000 000000
2014-03-17 01:38:40,0.68,10.17,0.00,24.27,29.07,31.81,5.83,32.58,1014.69,2029.99,1175.17,1574.09,1714.12,349.67,321.37,23.99,0000 0000 0000 0000 000000
2014-03-17 01:39:41,0.40,10.17,0.00,24.27,29.07,31.86,5.94,32.75,1014.67,2029.98,1175.06,1574.03,1714.04,349.95,321.93,24.00,0000 0000 0000 0000 000000
2014-03-17 01:40:41,0.16,10.17,0.00,24.27,29.08,31.87,5.98,32.54,1014.66,2029.97,1174.99,1574.00,1714.01,349.85,321.67,24.01,0000 0000 0000 0000 000000
2014-03-17 01:41:41,0.11,10.17,0.00,24.27,29.09,31.81,5.86,32.38,1014.66,2029.97,1174.70,1573.93,1713.84,349.33,321.48,24.01,0000 0000 0000 0000 000000
2014-03-17 01:42:42,0.41,10.18,0.00,24.27,29.10,31.82,6.10,32.63,1014.66,2029.98,1174.33,1573.60,1713.43,350.37,322.41,24.02,0000 0000 0000 0000 000000
2014-03-17 01:43:42,0.59,10.18,0.00,24.27,29.10,31.85,6.02,32.71,1014.66,2029.99,1174.14,1573.27,1713.16,350.06,322.02,24.02,0000 0000 0000 0000 000000
2014-03-17 01:44:42,0.43,10.18,0.00,24.27,29.10,31.87,5.94,32.50,1014.66,2029.99,1174.05,1573.10,1713.06,350.24,322.18,24.03,0000 0000 0000 0000 000000
2014-03-17 01:45:42,0.24,10.18,0.00,24.28,29.10,31.84,5.86,32.46,1014.66,2029.98,1173.97,1573.03,1713.02,350.00,322.47,24.04,0000 0000 0000 0000 000000
2014-03-17 01:46:43,0.11,10.19,0.00,24.29,29.10,31.88,6.14,32.79,1014.66,2029.96,1173.77,1573.00,1712.98,351.06,322.81,24.04,0000 0000 0000 0000 000000
2014-03-17 01:47:43,0.20,10.19,0.00,24.29,29.10,31.90,6.01,32.92,1014.66,2029.96,1173.34,1572.89,1712.78,350.34,322.37,24.05,0000 0000 0000 0000 000000
2014-03-17 01:48:43,0.46,10.19,0.00,24.29,29.10,31.90,6.21,32.75,1014.66,2029.98,1173.12,1572.64,1712.34,350.35,322.26,24.05,0000 0000 0000 0000 000000
2014-03-17 01:49:43,0.52,10.19,0.00,24.29,29.11,31.91,6.03,32.79,1014.65,2029.95,1173.04,1572.28,1712.13,350.62,322.50,24.06,0000 0000 0000 0000 000000
2014-03-17 01:50:44,0.31,10.19,0.00,24.28,29.12,31.96,5.99,32.83,1014.66,2029.96,1172.99,1572.12,1712.05,349.32,321.32,24.06,0000 0000 0000 0000 000000
2014-03-17 01:51:44,0.21,10.20,0.00,24.29,29.12,31.95,5.95,32.71,1014.65,2029.97,1172.77,1572.04,1712.01,349.69,321.66,24.07,0000 0000 0000 0000 000000
2014-03-17 01:52:44,0.28,10.20,0.00,24.28,29.12,31.86,6.02,32.67,1014.61,2029.97,1172.38,1572.01,1711.96,349.35,321.46,24.08,0000 0000 0000 0000 000000
2014-03-17 01:53:45,0.32,10.20,0.00,24.27,29.12,31.91,6.01,32.63,1014.61,2029.98,1172.14,1571.98,1711.75,350.58,322.48,24.08,0000 0000 0000 0000 000000
2014-03-17 01:54:45,0.30,10.20,0.00,24.27,29.12,31.94,6.08,32.63,1014.64,2029.99,1172.04,1571.70,1711.30,351.03,322.90,24.09,0000 0000 0000 0000 000000
2014-03-17 01:55:45,0.39,10.20,0.00,24.27,29.12,31.96,5.90,32.63,1014.64,2029.98,1171.90,1571.35,1711.12,350.08,322.03,24.09,0000 0000 0000 0000 000000
2014-03-17 01:56:46,0.43,10.21,0.00,24.27,29.12,31.95,6.03,32.63,1014.62,2029.97,1171.53,1571.16,1711.04,350.07,322.01,24.10,0000 0000 0000 0000 000000
2014-03-17 01:57:46,0.40,10.21,0.00,24.27,29.12,31.94,5.90,32.42,1014.65,2029.95,1171.21,1571.06,1710.97,349.70,322.14,24.11,0000 0000 0000 0000 000000
2014-03-17 01:58:46,0.31,10.21,0.00,24.27,29.13,31.93,6.10,32.79,1014.63,2029.94,1171.07,1571.02,1710.75,350.29,322.55,24.11,0000 0000 0000 0000 000000
2014-03-17 01:59:46,0.18,10.21,0.00,24.27,29.14,31.90,6.08,32.71,1014.65,2029.94,1171.00,1570.97,1710.42,350.21,322.18,24.12,0000 0000 0000 0000 000000
2014-03-17 02:00:47,0.23,10.21,0.00,24.28,29.14,31.90,5.97,32.38,1014.65,2029.94,1170.75,1570.81,1710.17,349.87,321.83,24.12,0000 0000 0000 0000 000000
2014-03-17 02:01:47,0.49,10.22,0.00,24.29,29.15,31.94,5.83,32.50,1014.66,2029.95,1170.35,1570.43,1710.06,349.39,321.57,24.13,0000 0000 0000 0000 000000
2014-03-17 02:02:47,0.50,10.22,0.00,24.30,29.15,31.94,6.10,32.46,1014.66,2029.94,1170.13,1570.17,1710.02,350.77,322.06,24.14,0000 0000 0000 0000 000000
2014-03-17 02:03:48,0.31,10.22,0.00,24.31,29.15,31.96,6.13,32.54,1014.66,2029.93,1170.04,1570.06,1709.96,350.79,322.65,24.14,0000 0000 0000 0000 000000
2014-03-17 02:04:48,0.17,10.22,0.00,24.31,29.15,31.92,5.93,32.50,1014.66,2029.90,1169.89,1570.00,1709.52,349.67,321.61,24.15,0000 0000 0000 0000 000000
2014-03-17 02:05:48,0.30,10.22,0.00,24.31,29.15,31.93,6.17,32.71,1014.66,2029.82,1169.44,1569.92,1709.20,350.95,322.60,24.15,0000 0000 0000 0000 000000
2014-03-17 02:06:48,0.39,10.23,0.00,24.30,29.15,31.97,5.92,32.33,1014.65,2029.79,1169.17,1569.69,1709.07,350.04,321.96,24.16,0000 0000 0000 0000 000000
2014-03-17 02:07:49,0.43,10.23,0.00,24.30,29.15,31.98,5.96,32.50,1014.65,2029.84,1169.06,1569.30,1709.02,350.36,322.26,24.16,0000 0000 0000 0000 000000
2014-03-17 02:08:49,0.34,10.23,0.00,24.30,29.15,31.96,6.08,32.63,1014.65,2029.86,1168.98,1569.11,1708.96,350.08,321.94,24.17,0000 0000 0000 0000 000000
2014-03-17 02:09:49,0.30,10.23,0.00,24.30,29.15,31.97,6.04,32.67,1014.66,2029.87,1168.56,1569.04,1708.58,349.62,321.57,24.18,0000 0000 0000 0000 000000
2014-03-17 02:10:49,0.50,10.24,0.00,24.31,29.16,31.97,6.04,32.88,1014.65,2029.84,1168.24,1569.01,1708.25,350.44,322.32,24.18,0000 0000 0000 0000 000000
2014-03-17 02:11:50,0.41,10.24,0.00,24.32,29.17,31.99,6.07,32.63,1014.66,2029.87,1168.09,1568.91,1708.09,350.18,322.07,24.19,0000 0000 0000 0000 000000
2014-03-17 02:12:50,0.26,10.24,0.00,24.32,29.17,31.99,5.85,32.58,1014.66,2029.82,1167.97,1568.48,1708.02,349.41,321.36,24.19,0000 0000 0000 0000 000000
2014-03-17 02:13:50,0.33,10.24,0.00,24.32,29.17,31.99,6.08,32.63,1014.66,2029.80,1167.55,1568.18,1707.88,350.47,322.34,24.20,0000 0000 0000 0000 000000
2014-03-17 02:14:51,0.53,10.25,0.00,24.32,29.17,31.97,5.97,32.58,1014.66,2029.83,1167.22,1568.07,1707.48,350.11,322.01,24.21,0000 0000 0000 0000 000000
2014-03-17 02:15:51,0.48,10.25,0.00,24.32,29.17,31.97,6.08,32.71,1014.66,2029.83,1167.09,1568.02,1707.19,350.67,322.52,24.21,0000 0000 0000 0000 000000
2014-03-17 02:16:51,0.24,10.25,0.00,24.32,29.17,31.97,6.09,32.50,1014.66,2029.80,1167.01,1567.96,1707.06,350.01,321.92,24.22,0000 0000 0000 0000 000000
2014-03-17 02:17:52,0.12,10.25,0.00,24.32,29.17,31.97,6.09,32.63,1014.66,2029.70,1166.83,1567.72,1707.02,350.53,322.39,24.22,0000 0000 0000 0000 000000
2014-03-17 02:18:52,0.25,10.25,0.00,24.32,29.17,32.01,5.98,32.63,1014.66,2029.69,1166.47,1567.32,1706.90,349.34,321.30,24.23,0000 0000 0000 0000 000000
2014-03-17 02:19:52,0.50,10.25,0.00,24.31,29.17,32.00,6.07,32.63,1014.67,2029.58,1166.18,1567.12,1706.48,350.13,322.03,24.24,0000 0000 0000 0000 000000
2014-03-17 02:20:52,0.40,10.26,0.00,24.32,29.17,31.99,6.12,32.88,1014.67,2029.52,1166.06,1567.04,1706.19,350.70,322.57,24.24,0000 0000 0000 0000 000000
2014-03-17 02:21:53,0.20,10.26,0.00,24.31,29.18,31.96,6.04,32.71,1014.67,2029.49,1165.82,1566.99,1706.06,350.41,322.49,24.25,0000 0000 0000 0000 000000
2014-03-17 02:22:53,0.27,10.26,0.00,24.32,29.18,31.98,6.05,32.50,1014.66,2029.56,1165.45,1566.86,1706.02,350.59,322.66,24.25,0000 0000 0000 0000 000000
2014-03-17 02:23:53,0.45,10.26,0.00,24.31,29.19,31.97,6.05,32.67,1014.69,2029.61,1165.18,1566.47,1705.89,350.42,322.31,24.26,0000 0000 0000 0000 000000
2014-03-17 02:24:53,0.56,10.27,0.00,24.32,29.19,31.99,6.01,32.25,1014.68,2029.69,1165.06,1566.21,1705.52,350.08,322.09,24.26,0000 0000 0000 0000 000000
2014-03-17 02:25:54,0.49,10.27,0.00,24.32,29.20,31.95,6.10,32.67,1014.67,2029.76,1165.00,1566.08,1705.23,350.58,322.44,24.27,0000 0000 0000 0000 000000
2014-03-17 02:26:54,0.32,10.27,0.00,24.32,29.20,31.97,6.07,32.63,1014.74,2029.75,1164.84,1566.02,1705.10,349.45,321.43,24.28,0000 0000 0000 0000 000000
2014-03-17 02:27:54,0.21,10.27,0.00,24.32,29.20,31.98,6.04,32.54,1014.75,2029.64,1164.37,1565.96,1705.03,349.43,321.41,24.28,0000 0000 0000 0000 000000
2014-03-17 02:28:54,0.30,10.27,0.00,24.33,29.20,32.00,6.07,32.33,1014.77,2029.54,1164.13,1565.64,1704.98,350.32,322.23,24.29,0000 0000 0000 0000 000000
2014-03-17 02:29:55,0.29,10.27,0.00,24.34,29.20,32.00,5.83,32.46,1014.84,2029.40,1164.02,1565.24,1704.62,349.79,321.75,24.29,0000 0000 0000 0000 000000
2014-03-17 02:30:55,0.30,10.28,0.00,24.35,29.20,32.01,5.85,32.42,1014.98,2029.37,1163.83,1565.08,1704.27,349.77,321.77,24.30,0000 0000 0000 0000 000000
2014-03-17 02:31:55,0.39,10.28,0.00,24.36,29.20,32.03,5.93,32.63,1015.05,2029.43,1163.36,1565.02,1704.10,349.95,321.95,24.31,0000 0000 0000 0000 000000
2014-03-17 02:32:55,0.45,10.28,0.00,24.36,29.20,32.02,5.98,32.63,1015.06,2029.39,1163.13,1564.99,1704.03,349.53,321.57,24.31,0000 0000 0000 0000 000000
2014-03-17 02:33:56,0.24,10.28,0.00,24.36,29.20,32.01,6.13,32.63,1015.06,2029.44,1163.04,1564.86,1703.95,350.46,322.58,24.32,0000 0000 0000 0000 000000
2014-03-17 02:34:56,0.28,10.28,0.00,24.35,29.20,31.98,6.04,32.75,1015.10,2029.47,1162.99,1564.48,1703.67,350.73,322.84,24.32,0000 0000 0000 0000 000000